Hourly Data Report for February 22, 2019

TORONTO INTL A
ONTARIO
Current Station Operator: NAVCAN

43°40'36.000" N
79°37'50.000" W
173.40 m
6158731
71624
YYZ

Download Data

Hourly Data (February 2019)
Hourly Data Report for February 22, 2019
TIME
LST
Temp Definition
°C
Dew Point Definition
°C
Rel Hum Definition
%
Precip. Amount Definition
mm

Wind Dir Definition
10's deg

Wind Spd Definition
km/h
Visibility Definition
km
Stn Press Definition
kPa
Hmdx Definition


Wind Chill Definition


Weather Definition


00:00 -2.6 -7.7 68   27 12 24.1 100.33   -7 LegendNANA
01:00 -3.2 -7.9 70   30 7 24.1 100.35   -6 Mostly Cloudy
02:00 -3.9 -8.2 72   25 12 24.1 100.42   -9 LegendNANA
03:00 -4.2 -8.3 73   27 4 24.1 100.48   -6 LegendNANA
04:00 -3.4 -7.0 76   26 12 24.1 100.53   -8 Mostly Cloudy
05:00 -3.4 -7.0 76   27 13 24.1 100.63   -8 LegendNANA
06:00 -2.8 -6.3 77   27 11 24.1 100.69   -7 LegendNANA
07:00 -2.8 -6.5 76   28 13 19.3 100.78   -7 Mostly Cloudy
08:00 -2.5 -6.2 75   28 9 19.3 100.85   -6 LegendNANA
09:00 -1.0 -5.0 74   30 8 19.3 100.93   -4 LegendNANA
10:00 0.0 -4.4 73   31 11 19.3 100.92   -4 Mostly Cloudy
11:00 1.0 -4.6 66   32 17 24.1 100.96     LegendNANA
12:00 1.2 -5.7 60   35 13 24.1 100.94     LegendNANA
13:00 1.1 -5.7 61   27 7 24.1 100.96     Mostly Cloudy
14:00 1.3 -5.5 61   30 8 24.1 100.99     LegendNANA
15:00 1.3 -5.2 62   32 13 24.1 100.97     LegendNANA
16:00 1.5 -5.4 60   36 3 24.1 100.96     Mostly Cloudy
17:00 1.6 -5.7 59   2 5 24.1 100.94     LegendNANA
18:00 1.2 -6.1 58   4 5 24.1 100.98     LegendNANA
19:00 0.4 -6.0 62   6 6 24.1 101.00     Mainly Clear
20:00 0.1 -5.9 64   1 7 24.1 101.08     LegendNANA
21:00 -0.8 -6.6 65   1 9 24.1 101.07   -4 LegendNANA
22:00 -1.2 -6.7 66   3 7 24.1 101.05   -4 Clear
23:00 -1.1 -6.5 67   12 3 24.1 101.02   -2 LegendNANA

Notes on Data Quality.

Legend

  • E = Estimated
  • M = Missing
  • NA = Not Available*
  • [empty] = Indicates an unobserved value
Date modified: